Year,Month,Day,Hour,Minute,Value (Times are PST for temperature in C)
2018,03,21,00,00,3.80
2018,03,21,00,01,3.80
2018,03,21,00,02,3.80
2018,03,21,00,03,3.80
2018,03,21,00,04,3.80
2018,03,21,00,05,3.80
2018,03,21,00,06,3.80
2018,03,21,00,07,3.70
2018,03,21,00,08,3.70
2018,03,21,00,09,3.70
2018,03,21,00,10,3.70
2018,03,21,00,11,3.70
2018,03,21,00,12,3.70
2018,03,21,00,13,3.60
2018,03,21,00,14,3.60
2018,03,21,00,15,3.60
2018,03,21,00,16,3.60
2018,03,21,00,17,3.60
2018,03,21,00,18,3.60
2018,03,21,00,19,3.60
2018,03,21,00,20,3.60
2018,03,21,00,21,3.60
2018,03,21,00,22,3.60
2018,03,21,00,23,3.60
2018,03,21,00,24,3.60
2018,03,21,00,25,3.50
2018,03,21,00,26,3.50
2018,03,21,00,27,3.50
2018,03,21,00,28,3.50
2018,03,21,00,29,3.50
2018,03,21,00,30,3.50
2018,03,21,00,31,3.50
2018,03,21,00,32,3.50
2018,03,21,00,33,3.50
2018,03,21,00,34,3.50
2018,03,21,00,35,3.50
2018,03,21,00,36,3.50
2018,03,21,00,37,3.50
2018,03,21,00,38,3.50
2018,03,21,00,39,3.50
2018,03,21,00,40,3.50
2018,03,21,00,41,3.50
2018,03,21,00,42,3.50
2018,03,21,00,43,3.40
2018,03,21,00,44,3.40
2018,03,21,00,45,3.40
2018,03,21,00,46,3.40
2018,03,21,00,47,3.40
2018,03,21,00,48,3.40
2018,03,21,00,49,3.40
2018,03,21,00,50,3.40
2018,03,21,00,51,3.30
2018,03,21,00,52,3.30
2018,03,21,00,53,3.30
2018,03,21,00,54,3.30
2018,03,21,00,55,3.30
2018,03,21,00,56,3.30
2018,03,21,00,57,3.30
2018,03,21,00,58,3.30
2018,03,21,00,59,3.30
2018,03,21,01,00,3.30
2018,03,21,01,01,3.30
2018,03,21,01,02,3.30
2018,03,21,01,03,3.30
2018,03,21,01,04,3.30
2018,03,21,01,05,3.30
2018,03,21,01,06,3.30
2018,03,21,01,07,3.30
2018,03,21,01,08,3.30
2018,03,21,01,09,3.20
2018,03,21,01,10,3.30
2018,03,21,01,11,3.30
2018,03,21,01,12,3.30
2018,03,21,01,13,3.30
2018,03,21,01,14,3.30
2018,03,21,01,15,3.30
2018,03,21,01,16,3.30
2018,03,21,01,17,3.30
2018,03,21,01,18,3.30
2018,03,21,01,19,3.30
2018,03,21,01,20,3.30
2018,03,21,01,21,3.20
2018,03,21,01,22,3.20
2018,03,21,01,23,3.20
2018,03,21,01,24,3.20
2018,03,21,01,25,3.20
2018,03,21,01,26,3.20
2018,03,21,01,27,3.20
2018,03,21,01,28,3.20
2018,03,21,01,29,3.20
2018,03,21,01,30,3.20
2018,03,21,01,31,3.20
2018,03,21,01,32,3.20
2018,03,21,01,33,3.10
2018,03,21,01,34,3.10
2018,03,21,01,35,3.10
2018,03,21,01,36,3.10
2018,03,21,01,37,3.10
2018,03,21,01,38,3.10
2018,03,21,01,39,3.10
2018,03,21,01,40,3.10
2018,03,21,01,41,3.10
2018,03,21,01,42,3.10
2018,03,21,01,43,3.10
2018,03,21,01,44,3.10
2018,03,21,01,45,3.10
2018,03,21,01,46,3.10
2018,03,21,01,47,3.10
2018,03,21,01,48,3.10
2018,03,21,01,49,3.10
2018,03,21,01,50,3.10
2018,03,21,01,51,3.10
2018,03,21,01,52,3.10
2018,03,21,01,53,3.10
2018,03,21,01,54,3.10
2018,03,21,01,55,3.10
2018,03,21,01,56,3.00
2018,03,21,01,57,2.90
2018,03,21,01,58,2.90
2018,03,21,01,59,2.90
2018,03,21,02,00,2.90
2018,03,21,02,01,2.90
2018,03,21,02,02,2.90
2018,03,21,02,03,2.90
2018,03,21,02,04,2.90
2018,03,21,02,05,2.90
2018,03,21,02,06,2.90
2018,03,21,02,07,2.90
2018,03,21,02,08,2.90
2018,03,21,02,09,2.90
2018,03,21,02,10,2.90
2018,03,21,02,11,2.90
2018,03,21,02,12,2.90
2018,03,21,02,13,2.90
2018,03,21,02,14,2.90
2018,03,21,02,15,2.90
2018,03,21,02,16,2.90
2018,03,21,02,17,2.90
2018,03,21,02,18,2.90
2018,03,21,02,19,2.90
2018,03,21,02,20,2.90
2018,03,21,02,21,2.90
2018,03,21,02,22,2.90
2018,03,21,02,23,3.00
2018,03,21,02,24,3.10
2018,03,21,02,25,3.10
2018,03,21,02,26,3.10
2018,03,21,02,27,3.10
2018,03,21,02,28,3.10
2018,03,21,02,29,3.10
2018,03,21,02,30,3.10
2018,03,21,02,31,3.10
2018,03,21,02,32,3.10
2018,03,21,02,33,3.10
2018,03,21,02,34,3.10
2018,03,21,02,35,3.10
2018,03,21,02,36,3.10
2018,03,21,02,37,3.10
2018,03,21,02,38,3.10
2018,03,21,02,39,3.10
2018,03,21,02,40,3.10
2018,03,21,02,41,3.10
2018,03,21,02,42,3.10
2018,03,21,02,43,3.10
2018,03,21,02,44,3.10
2018,03,21,02,45,3.10
2018,03,21,02,46,3.10
2018,03,21,02,47,3.10
2018,03,21,02,48,3.10
2018,03,21,02,49,3.10
2018,03,21,02,50,3.10
2018,03,21,02,51,3.10
2018,03,21,02,52,3.10
2018,03,21,02,53,3.10
2018,03,21,02,54,3.10
2018,03,21,02,55,3.10
2018,03,21,02,56,3.10
2018,03,21,02,57,3.10
2018,03,21,02,58,3.10
2018,03,21,02,59,3.10
2018,03,21,03,00,3.10
2018,03,21,03,01,3.10
2018,03,21,03,02,3.10
2018,03,21,03,03,3.10
2018,03,21,03,04,3.10
2018,03,21,03,05,3.10
2018,03,21,03,06,3.10
2018,03,21,03,07,3.10
2018,03,21,03,08,3.10
2018,03,21,03,09,3.10
2018,03,21,03,10,3.10
2018,03,21,03,11,3.10
2018,03,21,03,12,3.10
2018,03,21,03,13,3.10
2018,03,21,03,14,3.10
2018,03,21,03,15,3.10
2018,03,21,03,16,3.10
2018,03,21,03,17,3.10
2018,03,21,03,18,3.10
2018,03,21,03,19,3.10
2018,03,21,03,20,3.10
2018,03,21,03,21,3.10
2018,03,21,03,22,3.10
2018,03,21,03,23,3.10
2018,03,21,03,24,3.10
2018,03,21,03,25,3.10
2018,03,21,03,26,3.20
2018,03,21,03,27,3.20
2018,03,21,03,28,3.20
2018,03,21,03,29,3.20
2018,03,21,03,30,3.20
2018,03,21,03,31,3.20
2018,03,21,03,32,3.20
2018,03,21,03,33,3.30
2018,03,21,03,34,3.30
2018,03,21,03,35,3.30
2018,03,21,03,36,3.30
2018,03,21,03,37,3.30
2018,03,21,03,38,3.30
2018,03,21,03,39,3.30
2018,03,21,03,40,3.30
2018,03,21,03,41,3.30
2018,03,21,03,42,3.30
2018,03,21,03,43,3.30
2018,03,21,03,44,3.30
2018,03,21,03,45,3.30
2018,03,21,03,46,3.30
2018,03,21,03,47,3.30
2018,03,21,03,48,3.30
2018,03,21,03,49,3.30
2018,03,21,03,50,3.30
2018,03,21,03,51,3.30
2018,03,21,03,52,3.30
2018,03,21,03,53,3.30
2018,03,21,03,54,3.30
2018,03,21,03,55,3.30
2018,03,21,03,56,3.30
2018,03,21,03,57,3.30
2018,03,21,03,58,3.30
2018,03,21,03,59,3.30
2018,03,21,04,00,3.30
2018,03,21,04,01,3.20
2018,03,21,04,02,3.20
2018,03,21,04,03,3.20
2018,03,21,04,04,3.20
2018,03,21,04,05,3.20
2018,03,21,04,06,3.20
2018,03,21,04,07,3.20
2018,03,21,04,08,3.20
2018,03,21,04,09,3.20
2018,03,21,04,10,3.20
2018,03,21,04,11,3.20
2018,03,21,04,12,3.10
2018,03,21,04,13,3.10
2018,03,21,04,14,3.10
2018,03,21,04,15,3.10
2018,03,21,04,16,3.10
2018,03,21,04,17,3.10
2018,03,21,04,18,3.10
2018,03,21,04,19,3.10
2018,03,21,04,20,3.10
2018,03,21,04,21,3.10
2018,03,21,04,22,3.10
2018,03,21,04,23,3.10
2018,03,21,04,24,3.10
2018,03,21,04,25,3.10
2018,03,21,04,26,3.10
2018,03,21,04,27,3.10
2018,03,21,04,28,3.10
2018,03,21,04,29,3.10
2018,03,21,04,30,3.10
2018,03,21,04,31,3.10
2018,03,21,04,32,3.10
2018,03,21,04,33,3.20
2018,03,21,04,34,3.20
2018,03,21,04,35,3.20
2018,03,21,04,36,3.20
2018,03,21,04,37,3.20
2018,03,21,04,38,3.20
2018,03,21,04,39,3.20
2018,03,21,04,40,3.20
2018,03,21,04,41,3.30
2018,03,21,04,42,3.30
2018,03,21,04,43,3.30
2018,03,21,04,44,3.30
2018,03,21,04,45,3.30
2018,03,21,04,46,3.30
2018,03,21,04,47,3.30
2018,03,21,04,48,3.30
2018,03,21,04,49,3.30
2018,03,21,04,50,3.30
2018,03,21,04,51,3.30
2018,03,21,04,52,3.30
2018,03,21,04,53,3.40
2018,03,21,04,54,3.40
2018,03,21,04,55,3.40
2018,03,21,04,56,3.40
2018,03,21,04,57,3.50
2018,03,21,04,58,3.50
2018,03,21,04,59,3.50
2018,03,21,05,00,3.50
2018,03,21,05,01,3.50
2018,03,21,05,02,3.50
2018,03,21,05,03,3.50
2018,03,21,05,04,3.50
2018,03,21,05,05,3.50
2018,03,21,05,06,3.50
2018,03,21,05,07,3.50
2018,03,21,05,08,3.60
2018,03,21,05,09,3.60
2018,03,21,05,10,3.60
2018,03,21,05,11,3.60
2018,03,21,05,12,3.60
2018,03,21,05,13,3.60
2018,03,21,05,14,3.60
2018,03,21,05,15,3.60
2018,03,21,05,16,3.60
2018,03,21,05,17,3.60
2018,03,21,05,18,3.60
2018,03,21,05,19,3.60
2018,03,21,05,20,3.60
2018,03,21,05,21,3.60
2018,03,21,05,22,3.60
2018,03,21,05,23,3.60
2018,03,21,05,24,3.70
2018,03,21,05,25,3.70
2018,03,21,05,26,3.70
2018,03,21,05,27,3.70
2018,03,21,05,28,3.80
2018,03,21,05,29,3.80
2018,03,21,05,30,3.80
2018,03,21,05,31,3.80
2018,03,21,05,32,3.80
2018,03,21,05,33,3.80
2018,03,21,05,34,3.80
2018,03,21,05,35,3.80
2018,03,21,05,36,3.80
2018,03,21,05,37,3.80
2018,03,21,05,38,3.80
2018,03,21,05,39,3.80
2018,03,21,05,40,3.80
2018,03,21,05,41,3.80
2018,03,21,05,42,3.80
2018,03,21,05,43,3.80
2018,03,21,05,44,3.80
2018,03,21,05,45,3.80
2018,03,21,05,46,3.80
2018,03,21,05,47,3.80
2018,03,21,05,48,3.80
2018,03,21,05,49,3.80
2018,03,21,05,50,3.80
2018,03,21,05,51,3.80
2018,03,21,05,52,3.80
2018,03,21,05,53,3.80
2018,03,21,05,54,3.80
2018,03,21,05,55,3.80
2018,03,21,05,56,3.80
2018,03,21,05,57,3.90
2018,03,21,05,58,3.90
2018,03,21,05,59,3.90
2018,03,21,06,00,3.90
2018,03,21,06,01,4.00
2018,03,21,06,02,4.00
2018,03,21,06,03,4.00
2018,03,21,06,04,4.00
2018,03,21,06,05,4.00
2018,03,21,06,06,4.00
2018,03,21,06,07,4.10
2018,03,21,06,08,4.10
2018,03,21,06,09,4.10
2018,03,21,06,10,4.10
2018,03,21,06,11,4.10
2018,03,21,06,12,4.10
2018,03,21,06,13,4.10
2018,03,21,06,14,4.10
2018,03,21,06,15,4.10
2018,03,21,06,16,4.10
2018,03,21,06,17,4.10
2018,03,21,06,18,4.10
2018,03,21,06,19,4.10
2018,03,21,06,20,4.10
2018,03,21,06,21,4.10
2018,03,21,06,22,4.10
2018,03,21,06,23,4.10
2018,03,21,06,24,4.10
2018,03,21,06,25,4.10
2018,03,21,06,26,4.10
2018,03,21,06,27,4.10
2018,03,21,06,28,4.20
2018,03,21,06,29,4.20
2018,03,21,06,30,4.20
2018,03,21,06,31,4.20
2018,03,21,06,32,4.20
2018,03,21,06,33,4.20
2018,03,21,06,34,4.20
2018,03,21,06,35,4.20
2018,03,21,06,36,4.20
2018,03,21,06,37,4.20
2018,03,21,06,38,4.20
2018,03,21,06,39,4.20
2018,03,21,06,40,4.20
2018,03,21,06,41,4.20
2018,03,21,06,42,4.20
2018,03,21,06,43,4.20
2018,03,21,06,44,4.20
2018,03,21,06,45,4.30
2018,03,21,06,46,4.30
2018,03,21,06,47,4.30
2018,03,21,06,48,4.20
2018,03,21,06,49,4.20
2018,03,21,06,50,4.20
2018,03,21,06,51,4.20
2018,03,21,06,52,4.20
2018,03,21,06,53,4.20
2018,03,21,06,54,4.20
2018,03,21,06,55,4.20
2018,03,21,06,56,4.20
2018,03,21,06,57,4.20
2018,03,21,06,58,4.20
2018,03,21,06,59,4.20
2018,03,21,07,00,4.20
2018,03,21,07,01,4.20
2018,03,21,07,02,4.20
2018,03,21,07,03,4.30
2018,03,21,07,04,4.30
2018,03,21,07,05,4.30
2018,03,21,07,06,4.30
2018,03,21,07,07,4.20
2018,03,21,07,08,4.20
2018,03,21,07,09,4.20
2018,03,21,07,10,4.20
2018,03,21,07,11,4.20
2018,03,21,07,12,4.20
2018,03,21,07,13,4.20
2018,03,21,07,14,4.20
2018,03,21,07,15,4.20
2018,03,21,07,16,4.20
2018,03,21,07,17,4.20
2018,03,21,07,18,4.20
2018,03,21,07,19,4.20
2018,03,21,07,20,4.20
2018,03,21,07,21,4.20
2018,03,21,07,22,4.20
2018,03,21,07,23,4.20
2018,03,21,07,24,4.20
2018,03,21,07,25,4.20
2018,03,21,07,26,4.20
2018,03,21,07,27,4.20
2018,03,21,07,28,4.20
2018,03,21,07,29,4.20
2018,03,21,07,30,4.20
2018,03,21,07,31,4.20
2018,03,21,07,32,4.20
2018,03,21,07,33,4.20
2018,03,21,07,34,4.20
2018,03,21,07,35,4.20
2018,03,21,07,36,4.20
2018,03,21,07,37,4.20
2018,03,21,07,38,4.20
2018,03,21,07,39,4.20
2018,03,21,07,40,4.20
2018,03,21,07,41,4.20
2018,03,21,07,42,4.20
2018,03,21,07,43,4.30
2018,03,21,07,44,4.30
2018,03,21,07,45,4.30
2018,03,21,07,46,4.30
2018,03,21,07,47,4.30
2018,03,21,07,48,4.30
2018,03,21,07,49,4.30
2018,03,21,07,50,4.30
2018,03,21,07,51,4.30
2018,03,21,07,52,4.40
2018,03,21,07,53,4.40
2018,03,21,07,54,4.40
2018,03,21,07,55,4.40
2018,03,21,07,56,4.40
2018,03,21,07,57,4.40
2018,03,21,07,58,4.40
2018,03,21,07,59,4.40
2018,03,21,08,00,4.40
2018,03,21,08,01,4.50
2018,03,21,08,02,4.50
2018,03,21,08,03,4.50
2018,03,21,08,04,4.50
2018,03,21,08,05,4.50
2018,03,21,08,06,4.50
2018,03,21,08,07,4.50
2018,03,21,08,08,4.50
2018,03,21,08,09,4.50
2018,03,21,08,10,4.50
2018,03,21,08,11,4.50
2018,03,21,08,12,4.50
2018,03,21,08,13,4.50
2018,03,21,08,14,4.60
2018,03,21,08,15,4.60
2018,03,21,08,16,4.60
2018,03,21,08,17,4.60
2018,03,21,08,18,4.60
2018,03,21,08,19,4.60
2018,03,21,08,20,4.60
2018,03,21,08,21,4.60
2018,03,21,08,22,4.60
2018,03,21,08,23,4.60
2018,03,21,08,24,4.60
2018,03,21,08,25,4.60
2018,03,21,08,26,4.60
2018,03,21,08,27,4.60
2018,03,21,08,28,4.60
2018,03,21,08,29,4.60
2018,03,21,08,30,4.70
2018,03,21,08,31,4.70
2018,03,21,08,32,4.70
2018,03,21,08,33,4.70
2018,03,21,08,34,4.70
2018,03,21,08,35,4.70
2018,03,21,08,36,4.70
2018,03,21,08,37,4.70
2018,03,21,08,38,4.80
2018,03,21,08,39,4.80
2018,03,21,08,40,4.80
2018,03,21,08,41,4.80
2018,03,21,08,42,4.80
2018,03,21,08,43,4.80
2018,03,21,08,44,4.80
2018,03,21,08,45,4.90
2018,03,21,08,46,4.90
2018,03,21,08,47,4.90
2018,03,21,08,48,4.90
2018,03,21,08,49,4.90
2018,03,21,08,50,4.90
2018,03,21,08,51,5.10
2018,03,21,08,52,5.10
2018,03,21,08,53,5.10
2018,03,21,08,54,5.10
2018,03,21,08,55,5.10
2018,03,21,08,56,5.10
2018,03,21,08,57,5.10
2018,03,21,08,58,5.10
2018,03,21,08,59,5.10
2018,03,21,09,00,5.20
2018,03,21,09,01,5.20
2018,03,21,09,02,5.20
2018,03,21,09,03,5.30
2018,03,21,09,04,5.30
2018,03,21,09,05,5.30
2018,03,21,09,06,5.30
2018,03,21,09,07,5.40
2018,03,21,09,08,5.40
2018,03,21,09,09,5.40
2018,03,21,09,10,5.50
2018,03,21,09,11,5.50
2018,03,21,09,12,5.60
2018,03,21,09,13,5.60
2018,03,21,09,14,5.60
2018,03,21,09,15,5.70
2018,03,21,09,16,5.70
2018,03,21,09,17,5.70
2018,03,21,09,18,5.80
2018,03,21,09,19,5.80
2018,03,21,09,20,5.90
2018,03,21,09,21,5.90
2018,03,21,09,22,6.00
2018,03,21,09,23,6.00
2018,03,21,09,24,6.10
2018,03,21,09,25,6.10
2018,03,21,09,26,6.20
2018,03,21,09,27,6.20
2018,03,21,09,28,6.30
2018,03,21,09,29,6.40
2018,03,21,09,30,6.40
2018,03,21,09,31,6.50
2018,03,21,09,32,6.60
2018,03,21,09,33,6.60
2018,03,21,09,34,6.70
2018,03,21,09,35,6.80
2018,03,21,09,36,6.90
2018,03,21,09,37,7.00
2018,03,21,09,38,7.10
2018,03,21,09,39,7.20
2018,03,21,09,40,7.30
2018,03,21,09,41,7.30
2018,03,21,09,42,7.40
2018,03,21,09,43,7.50
2018,03,21,09,44,7.70
2018,03,21,09,45,7.80
2018,03,21,09,46,7.80
2018,03,21,09,47,7.90
2018,03,21,09,48,8.00
2018,03,21,09,49,8.00
2018,03,21,09,50,8.10
2018,03,21,09,51,8.00
2018,03,21,09,52,8.00
2018,03,21,09,53,8.00
2018,03,21,09,54,8.00
2018,03,21,09,55,7.90
2018,03,21,09,56,7.90
2018,03,21,09,57,8.00
2018,03,21,09,58,8.00
2018,03,21,09,59,8.00
2018,03,21,10,00,8.10
2018,03,21,10,01,8.10
2018,03,21,10,02,8.20
2018,03,21,10,03,8.20
2018,03,21,10,04,8.20
2018,03,21,10,05,8.20
2018,03,21,10,06,8.20
2018,03,21,10,07,8.20
2018,03,21,10,08,8.20
2018,03,21,10,09,8.20
2018,03,21,10,10,8.30
2018,03,21,10,11,8.30
2018,03,21,10,12,8.40
2018,03,21,10,13,8.40
2018,03,21,10,14,8.40
2018,03,21,10,15,8.40
2018,03,21,10,16,8.50
2018,03,21,10,17,8.50
2018,03,21,10,18,8.50
2018,03,21,10,19,8.60
2018,03,21,10,20,8.60
2018,03,21,10,21,8.70
2018,03,21,10,22,8.70
2018,03,21,10,23,8.70
2018,03,21,10,24,8.70
2018,03,21,10,25,8.70
2018,03,21,10,26,8.70
2018,03,21,10,27,8.70
2018,03,21,10,28,8.70
2018,03,21,10,29,8.80
2018,03,21,10,30,8.80
2018,03,21,10,31,8.80
2018,03,21,10,32,8.80
2018,03,21,10,33,8.80
2018,03,21,10,34,8.80
2018,03,21,10,35,8.90
2018,03,21,10,36,8.90
2018,03,21,10,37,8.90
2018,03,21,10,38,8.90
2018,03,21,10,39,8.80
2018,03,21,10,40,8.80
2018,03,21,10,41,8.80
2018,03,21,10,42,8.80
2018,03,21,10,43,8.80
2018,03,21,10,44,8.90
2018,03,21,10,45,8.90
2018,03,21,10,46,8.90
2018,03,21,10,47,8.90
2018,03,21,10,48,8.90
2018,03,21,10,49,8.90
2018,03,21,10,50,8.90
2018,03,21,10,51,8.90
2018,03,21,10,52,9.00
2018,03,21,10,53,9.00
2018,03,21,10,54,9.00
2018,03,21,10,55,9.10
2018,03,21,10,56,9.10
2018,03,21,10,57,9.10
2018,03,21,10,58,9.10
2018,03,21,10,59,9.20
2018,03,21,11,00,9.20
2018,03,21,11,01,9.20
2018,03,21,11,02,9.20
2018,03,21,11,03,9.20
2018,03,21,11,04,9.20
2018,03,21,11,05,9.20
2018,03,21,11,06,9.20
2018,03,21,11,07,9.20
2018,03,21,11,08,9.20
2018,03,21,11,09,9.20
2018,03,21,11,10,9.20
2018,03,21,11,11,9.20
2018,03,21,11,12,9.20
2018,03,21,11,13,9.20
2018,03,21,11,14,9.20
2018,03,21,11,15,9.20
2018,03,21,11,16,9.20
2018,03,21,11,17,9.20
2018,03,21,11,18,9.20
2018,03,21,11,19,9.20
2018,03,21,11,20,9.30
2018,03,21,11,21,9.30
2018,03,21,11,22,9.30
2018,03,21,11,23,9.20
2018,03,21,11,24,9.20
2018,03,21,11,25,9.20
2018,03,21,11,26,9.20
2018,03,21,11,27,9.20
2018,03,21,11,28,9.30
2018,03,21,11,29,9.40
2018,03,21,11,30,9.50
2018,03,21,11,31,9.60
2018,03,21,11,32,9.60
2018,03,21,11,33,9.70
2018,03,21,11,34,9.60
2018,03,21,11,35,9.60
2018,03,21,11,36,9.60
2018,03,21,11,37,9.60
2018,03,21,11,38,9.60
2018,03,21,11,39,9.70
2018,03,21,11,40,9.70
2018,03,21,11,41,9.70
2018,03,21,11,42,9.70
2018,03,21,11,43,9.70
2018,03,21,11,44,9.70
2018,03,21,11,45,9.70
2018,03,21,11,46,9.80
2018,03,21,11,47,9.80
2018,03,21,11,48,9.80
2018,03,21,11,49,9.80
2018,03,21,11,50,9.80
2018,03,21,11,51,9.90
2018,03,21,11,52,9.90
2018,03,21,11,53,9.90
2018,03,21,11,54,9.90
2018,03,21,11,55,9.90
2018,03,21,11,56,10.00
2018,03,21,11,57,10.10
2018,03,21,11,58,10.10
2018,03,21,11,59,10.10
2018,03,21,12,00,10.20
2018,03,21,12,01,10.20
2018,03,21,12,02,10.30
2018,03,21,12,03,10.30
2018,03,21,12,04,10.30
2018,03,21,12,05,10.20
2018,03,21,12,06,10.20
2018,03,21,12,07,10.00
2018,03,21,12,08,9.90
2018,03,21,12,09,9.80
2018,03,21,12,10,9.80
2018,03,21,12,11,9.80
2018,03,21,12,12,9.70
2018,03,21,12,13,9.70
2018,03,21,12,14,9.70
2018,03,21,12,15,9.70
2018,03,21,12,16,9.70
2018,03,21,12,17,9.70
2018,03,21,12,18,9.70
2018,03,21,12,19,9.80
2018,03,21,12,20,9.90
2018,03,21,12,21,9.90
2018,03,21,12,22,10.00
2018,03,21,12,23,10.10
2018,03,21,12,24,10.10
2018,03,21,12,25,10.10
2018,03,21,12,26,10.20
2018,03,21,12,27,10.20
2018,03,21,12,28,10.30
2018,03,21,12,29,10.40
2018,03,21,12,30,10.40
2018,03,21,12,31,10.40
2018,03,21,12,32,10.40
2018,03,21,12,33,10.40
2018,03,21,12,34,10.50
2018,03,21,12,35,10.50
2018,03,21,12,36,10.40
2018,03,21,12,37,10.40
2018,03,21,12,38,10.60
2018,03,21,12,39,10.60
2018,03,21,12,40,10.60
2018,03,21,12,41,10.60
2018,03,21,12,42,10.70
2018,03,21,12,43,10.70
2018,03,21,12,44,10.80
2018,03,21,12,45,10.80
2018,03,21,12,46,10.90
2018,03,21,12,47,10.90
2018,03,21,12,48,11.10
2018,03,21,12,49,11.10
2018,03,21,12,50,11.20
2018,03,21,12,51,11.20
2018,03,21,12,52,11.20
2018,03,21,12,53,11.10
2018,03,21,12,54,11.10
2018,03,21,12,55,11.10
2018,03,21,12,56,11.10
2018,03,21,12,57,11.10
2018,03,21,12,58,11.10
2018,03,21,12,59,11.10
2018,03,21,13,00,11.10
2018,03,21,13,01,11.20
2018,03,21,13,02,11.20
2018,03,21,13,03,11.20
2018,03,21,13,04,11.20
2018,03,21,13,05,11.20
2018,03,21,13,06,11.30
2018,03,21,13,07,11.20
2018,03,21,13,08,11.20
2018,03,21,13,09,11.10
2018,03,21,13,10,11.00
2018,03,21,13,11,10.90
2018,03,21,13,12,10.90
2018,03,21,13,13,10.80
2018,03,21,13,14,10.80
2018,03,21,13,15,10.80
2018,03,21,13,16,10.80
2018,03,21,13,17,10.90
2018,03,21,13,18,10.90
2018,03,21,13,19,10.90
2018,03,21,13,20,10.90
2018,03,21,13,21,10.90
2018,03,21,13,22,10.90
2018,03,21,13,23,11.00
2018,03,21,13,24,11.10
2018,03,21,13,25,11.10
2018,03,21,13,26,11.10
2018,03,21,13,27,11.10
2018,03,21,13,28,11.20
2018,03,21,13,29,11.30
2018,03,21,13,30,11.40
2018,03,21,13,31,11.60
2018,03,21,13,32,11.60
2018,03,21,13,33,11.50
2018,03,21,13,34,11.40
2018,03,21,13,35,11.40
2018,03,21,13,36,11.30
2018,03,21,13,37,11.20
2018,03,21,13,38,11.20
2018,03,21,13,39,11.20
2018,03,21,13,40,11.20
2018,03,21,13,41,11.10
2018,03,21,13,42,11.00
2018,03,21,13,43,11.00
2018,03,21,13,44,11.10
2018,03,21,13,45,11.10
2018,03,21,13,46,11.10
2018,03,21,13,47,11.10
2018,03,21,13,48,11.10
2018,03,21,13,49,11.20
2018,03,21,13,50,11.30
2018,03,21,13,51,11.40
2018,03,21,13,52,11.40
2018,03,21,13,53,11.40
2018,03,21,13,54,11.50
2018,03,21,13,55,11.60
2018,03,21,13,56,11.70
2018,03,21,13,57,11.70
2018,03,21,13,58,11.60
2018,03,21,13,59,11.50
2018,03,21,14,00,11.40
2018,03,21,14,01,11.40
2018,03,21,14,02,11.50
2018,03,21,14,03,11.60
2018,03,21,14,04,11.60
2018,03,21,14,05,11.70
2018,03,21,14,06,11.60
2018,03,21,14,07,11.60
2018,03,21,14,08,11.60
2018,03,21,14,09,11.60
2018,03,21,14,10,11.50
2018,03,21,14,11,11.40
2018,03,21,14,12,11.40
2018,03,21,14,13,11.40
2018,03,21,14,14,11.40
2018,03,21,14,15,11.40
2018,03,21,14,16,11.40
2018,03,21,14,17,11.40
2018,03,21,14,18,11.40
2018,03,21,14,19,11.40
2018,03,21,14,20,11.40
2018,03,21,14,21,11.40
2018,03,21,14,22,11.40
2018,03,21,14,23,11.40
2018,03,21,14,24,11.40
2018,03,21,14,25,11.30
2018,03,21,14,26,11.30
2018,03,21,14,27,11.40
2018,03,21,14,28,11.40
2018,03,21,14,29,11.40
2018,03,21,14,30,11.40
2018,03,21,14,31,11.50
2018,03,21,14,32,11.60
2018,03,21,14,33,11.60
2018,03,21,14,34,11.60
2018,03,21,14,35,11.60
2018,03,21,14,36,11.60
2018,03,21,14,37,11.70
2018,03,21,14,38,11.70
2018,03,21,14,39,11.70
2018,03,21,14,40,11.80
2018,03,21,14,41,11.80
2018,03,21,14,42,11.80
2018,03,21,14,43,11.80
2018,03,21,14,44,11.80
2018,03,21,14,45,11.80
2018,03,21,14,46,11.70
2018,03,21,14,47,11.70
2018,03,21,14,48,11.80
2018,03,21,14,49,11.80
2018,03,21,14,50,11.80
2018,03,21,14,51,11.80
2018,03,21,14,52,11.70
2018,03,21,14,53,11.70
2018,03,21,14,54,11.60
2018,03,21,14,55,11.60
2018,03,21,14,56,11.60
2018,03,21,14,57,11.60
2018,03,21,14,58,11.80
2018,03,21,14,59,11.80
2018,03,21,15,00,11.90
2018,03,21,15,01,11.90
2018,03,21,15,02,11.90
2018,03,21,15,03,11.90
2018,03,21,15,04,11.90
2018,03,21,15,05,12.00
2018,03,21,15,06,12.00
2018,03,21,15,07,11.90
2018,03,21,15,08,11.80
2018,03,21,15,09,11.70
2018,03,21,15,10,11.70
2018,03,21,15,11,11.60
2018,03,21,15,12,11.50
2018,03,21,15,13,11.40
2018,03,21,15,14,11.40
2018,03,21,15,15,11.30
2018,03,21,15,16,11.30
2018,03,21,15,17,11.50
2018,03,21,15,18,11.70
2018,03,21,15,19,11.80
2018,03,21,15,20,11.90
2018,03,21,15,21,12.00
2018,03,21,15,22,12.10
2018,03,21,15,23,12.10
2018,03,21,15,24,12.20
2018,03,21,15,25,12.30
2018,03,21,15,26,12.30
2018,03,21,15,27,12.30
2018,03,21,15,28,12.30
2018,03,21,15,29,12.30
2018,03,21,15,30,12.30
2018,03,21,15,31,12.30
2018,03,21,15,32,12.30
2018,03,21,15,33,12.20
2018,03,21,15,34,12.20
2018,03,21,15,35,12.30
2018,03,21,15,36,12.30
2018,03,21,15,37,12.50
2018,03,21,15,38,12.60
2018,03,21,15,39,12.60
2018,03,21,15,40,12.60
2018,03,21,15,41,12.60
2018,03,21,15,42,12.40
2018,03,21,15,43,12.20
2018,03,21,15,44,12.10
2018,03,21,15,45,12.10
2018,03,21,15,46,12.10
2018,03,21,15,47,12.20
2018,03,21,15,48,12.30
2018,03,21,15,49,12.30
2018,03,21,15,50,12.30
2018,03,21,15,51,12.30
2018,03,21,15,52,12.30
2018,03,21,15,53,12.30
2018,03,21,15,54,12.40
2018,03,21,15,55,12.40
2018,03,21,15,56,12.50
2018,03,21,15,57,12.60
2018,03,21,15,58,12.60
2018,03,21,15,59,12.70
2018,03,21,16,00,12.80
2018,03,21,16,01,12.80
2018,03,21,16,02,12.80
2018,03,21,16,03,12.80
2018,03,21,16,04,12.80
2018,03,21,16,05,12.80
2018,03,21,16,06,12.80
2018,03,21,16,07,12.80
2018,03,21,16,08,12.90
2018,03,21,16,09,12.90
2018,03,21,16,10,12.90
2018,03,21,16,11,12.90
2018,03,21,16,12,12.90
2018,03,21,16,13,12.90
2018,03,21,16,14,12.90
2018,03,21,16,15,12.80
2018,03,21,16,16,12.90
2018,03,21,16,17,12.90
2018,03,21,16,18,12.90
2018,03,21,16,19,12.90
2018,03,21,16,20,12.80
2018,03,21,16,21,12.80
2018,03,21,16,22,12.80
2018,03,21,16,23,12.70
2018,03,21,16,24,12.60
2018,03,21,16,25,12.60
2018,03,21,16,26,12.60
2018,03,21,16,27,12.60
2018,03,21,16,28,12.60
2018,03,21,16,29,12.50
2018,03,21,16,30,12.50
2018,03,21,16,31,12.50
2018,03,21,16,32,12.50
2018,03,21,16,33,12.50
2018,03,21,16,34,12.50
2018,03,21,16,35,12.50
2018,03,21,16,36,12.50
2018,03,21,16,37,12.50
2018,03,21,16,38,12.50
2018,03,21,16,39,12.50
2018,03,21,16,40,12.50
2018,03,21,16,41,12.50
2018,03,21,16,42,12.60
2018,03,21,16,43,12.60
2018,03,21,16,44,12.60
2018,03,21,16,45,12.70
2018,03,21,16,46,12.70
2018,03,21,16,47,12.70
2018,03,21,16,48,12.70
2018,03,21,16,49,12.70
2018,03,21,16,50,12.70
2018,03,21,16,51,12.70
2018,03,21,16,52,12.70
2018,03,21,16,53,12.70
2018,03,21,16,54,12.80
2018,03,21,16,55,12.80
2018,03,21,16,56,12.80
2018,03,21,16,57,12.80
2018,03,21,16,58,12.70
2018,03,21,16,59,12.60
2018,03,21,17,00,12.60
2018,03,21,17,01,12.60
2018,03,21,17,02,12.60
2018,03,21,17,03,12.60
2018,03,21,17,04,12.50
2018,03,21,17,05,12.50
2018,03,21,17,06,12.40
2018,03,21,17,07,12.40
2018,03,21,17,08,12.40
2018,03,21,17,09,12.40
2018,03,21,17,10,12.40
2018,03,21,17,11,12.40
2018,03,21,17,12,12.50
2018,03,21,17,13,12.50
2018,03,21,17,14,12.50
2018,03,21,17,15,12.50
2018,03,21,17,16,12.50
2018,03,21,17,17,12.50
2018,03,21,17,18,12.40
2018,03,21,17,19,12.40
2018,03,21,17,20,12.40
2018,03,21,17,21,12.40
2018,03,21,17,22,12.40
2018,03,21,17,23,12.40
2018,03,21,17,24,12.40
2018,03,21,17,25,12.40
2018,03,21,17,26,12.50
2018,03,21,17,27,12.50
2018,03,21,17,28,12.40
2018,03,21,17,29,12.40
2018,03,21,17,30,12.40
2018,03,21,17,31,12.30
2018,03,21,17,32,12.30
2018,03,21,17,33,12.30
2018,03,21,17,34,12.30
2018,03,21,17,35,12.40
2018,03,21,17,36,12.30
2018,03,21,17,37,12.30
2018,03,21,17,38,12.30
2018,03,21,17,39,12.30
2018,03,21,17,40,12.40
2018,03,21,17,41,12.40
2018,03,21,17,42,12.40
2018,03,21,17,43,12.40
2018,03,21,17,44,12.40
2018,03,21,17,45,12.30
2018,03,21,17,46,12.30
2018,03,21,17,47,12.30
2018,03,21,17,48,12.30
2018,03,21,17,49,12.30
2018,03,21,17,50,12.30
2018,03,21,17,51,12.30